Voltar ao catálogo

STARLINK-34626

AtivoComunicaçõesVLEO
NORAD 65082·PAYLOAD·🇺🇸 United States

Lançado Aug 4, 2025 de Cape Canaveral Space Force Station

Loading…

Próximas Passagens (próximas 24 horas)

TLE

AtualizadoSource: CelesTrak SupGP

Época: Sep 15, 2026, 03:41 UTC

1 65082C 25167E   26258.15395833 -.00050573  00000+0 -14944-2 0  2585
2 65082  53.1573 219.0110 0001478  86.6073 355.4994 15.34411645    15

Acompanhe STARLINK-34626 em tempo real com AllMySat

Download on the App Store